Regional Weather Roundup
Issued by NWS

Home | Current Version | Previous Version | Graphics & Text | Print | Product List | Glossary On
Versions: 1 2 3 4 5 6 7 8 9 10 11 12 13 14 15 16 17 18 19 20 21 22 23 24 25 26 27 28 29 30 31 32 33 34 35 36 37 38 39 40 41 42 43 44 45 46 47 48 49 50
000
ASUS43 KMKX 300021
RWRWI

WISCONSIN REGIONAL WEATHER ROUNDUP
NATIONAL WEATHER SERVICE MILWAUKEE/SULLIVAN WI
700 PM CDT MON MAY 29 2017

NOTE: "FAIR" INDICATES FEW OR NO CLOUDS BELOW 12,000 FEET WITH NO
SIGNIFICANT WEATHER AND/OR OBSTRUCTIONS TO VISIBILITY.

WIZ001-002-006>008-014>016-023>028-300100-
NORTHWEST WISCONSIN

CITY           SKY/WX    TMP DP  RH WIND       PRES   REMARKS
SUPERIOR ARPT  NOT AVBL
ASHLAND        CLOUDY    57  46  66 W13G24    29.74R
6HR MIN TEMP:  57; 6HR MAX TEMP:  64; 6HR PCP: TRACE;

HAYWARD        CLOUDY    58  47  66 W9        29.76R
6HR MIN TEMP:  58; 6HR MAX TEMP:  63; 6HR PCP:  0.01;

SIREN          CLOUDY    57  46  65 NW12      29.80R
6HR MIN TEMP:  55; 6HR MAX TEMP:  62; 6HR PCP:  0.06;

CUMBERLAND     PTSUNNY   55  48  76 NW13G18   29.79R
RICE LAKE      CLOUDY    56  52  84 W6        29.80R
6HR MIN TEMP:  55; 6HR MAX TEMP:  61; 6HR PCP:  0.06;

CHETEK         PTSUNNY   58  51  76 NW6       29.78S
6HR MIN TEMP:  53; 6HR MAX TEMP:  63; 6HR PCP:  0.07;

LADYSMITH      PTSUNNY   59  49  70 W6        29.78S
6HR MIN TEMP:  54; 6HR MAX TEMP:  62; 6HR PCP:  0.01;

EAU CLAIRE     CLOUDY    60  52  74 SW8       29.78S
6HR MIN TEMP:  56; 6HR MAX TEMP:  65; 6HR PCP:  0.08;

MENOMONIE      CLOUDY    61  49  65 W10G16    29.80R
6HR MIN TEMP:  60; 6HR MAX TEMP:  66;

NEW RICHMOND   PTSUNNY   58  45  60 NW15G25   29.83R
6HR MIN TEMP:  56; 6HR MAX TEMP:  65;

OSCEOLA        PTSUNNY   59  45  61 W16G23    29.85R
6HR MIN TEMP:  58; 6HR MAX TEMP:  65;

$$

WIZ003>005-009-010-017-018-300100-
NORTH CENTRAL WISCONSIN

CITY           SKY/WX    TMP DP  RH WIND       PRES   REMARKS
MANITOWISH WTR CLOUDY    55  52  90 W10       29.72R
6HR MIN TEMP:  51; 6HR MAX TEMP:  60; 6HR PCP:  0.12;

ARBOR VITAE    DRIZZLE   57  52  84 W8        29.73R
6HR MIN TEMP:  55; 6HR MAX TEMP:  62; 6HR PCP:  0.07;

WOODRUFF       DRIZZLE   57  52  84 W8        29.73R
6HR MIN TEMP:  55; 6HR MAX TEMP:  62; 6HR PCP:  0.07;

RHINELANDER    RAIN      53  50  89 NW6       29.75R FOG
6HR MIN TEMP:  53; 6HR MAX TEMP:  64; 6HR PCP:  0.34;

EAGLE RIVER    CLOUDY    55  52  88 W10G16    29.72R
6HR MIN TEMP:  52; 6HR MAX TEMP:  63;

LAND O LAKES   LGT RAIN  54  50  89 W7        29.73R
6HR MIN TEMP:  52; 6HR MAX TEMP:  62; 6HR PCP:  0.09;

PHILLIPS       CLOUDY    54  52  93 CALM      29.75S
6HR MIN TEMP:  53; 6HR MAX TEMP:  63; 6HR PCP:  0.09;

TOMAHAWK       LGT RAIN  55  49  83 W5        29.75S
6HR MIN TEMP:  54; 6HR MAX TEMP:  61;

MEDFORD        PTSUNNY   54  49  85 W7        29.77S
6HR MIN TEMP:  51; 6HR MAX TEMP:  61; 6HR PCP:  0.12;

MERRILL        CLOUDY    55  49  83 W12       29.76R
6HR MIN TEMP:  53; 6HR MAX TEMP:  62; 6HR PCP:  0.03;

$$

WIZ029-030-035-036-043>047-300100-
CENTRAL WISCONSIN

CITY           SKY/WX    TMP DP  RH WIND       PRES   REMARKS
WAUSAU         TSTM      53  47  79 W14G28    29.77R
6HR MIN TEMP:  53; 6HR MAX TEMP:  65; 6HR PCP:  0.04;

MOSINEE        PTSUNNY   55  52  88 SW10      29.78R
MARSHFIELD     LGT RAIN  53  47  79 W10G21    29.79R
6HR MIN TEMP:  55; 6HR MAX TEMP:  63; 6HR PCP:  0.02;

STEVENS POINT  PTSUNNY   58  48  69 W10       29.78S
6HR MIN TEMP:  55; 6HR MAX TEMP:  62;

WAUPACA        MOSUNNY   63  49  60 W10       29.78S
6HR MIN TEMP:  59; 6HR MAX TEMP:  68;

WAUTOMA        CLOUDY    61  50  67 SW8       29.80S
6HR MIN TEMP:  56; 6HR MAX TEMP:  68;

WISC RAPIDS    CLOUDY    60  47  61 W9        29.80S
6HR MIN TEMP:  54; 6HR MAX TEMP:  66; 6HR PCP:  0.05;

CAMP DOUGLAS   CLOUDY    58  53  83 W9        29.82F
6HR MIN TEMP:  54; 6HR MAX TEMP:  65; 6HR PCP:  0.12;

$$

WIZ011>013-019>022-031-037>040-048>050-300100-
NORTHEAST WISCONSIN

CITY           SKY/WX    TMP DP  RH WIND       PRES   REMARKS
ANTIGO         CLOUDY    54  49  82 W9        29.75S
6HR MIN TEMP:  51; 6HR MAX TEMP:  60; 6HR PCP:  0.06;

SHAWANO        MOSUNNY   61  47  58 W7        29.75S
6HR MIN TEMP:  55; 6HR MAX TEMP:  67; 6HR PCP:  0.09;

OCONTO         CLOUDY    57  49  75 W15G21    29.74R
6HR MIN TEMP:  57; 6HR MAX TEMP:  67; 6HR PCP:  0.01;

STURGEON BAY   CLOUDY    63  49  60 W12G20    29.74R
6HR MIN TEMP:  61; 6HR MAX TEMP:  67; 6HR PCP:  0.01;

GREEN BAY      MOSUNNY   63  50  62 SW14G23   29.75S
6HR MIN TEMP:  60; 6HR MAX TEMP:  68;

MANITOWOC      CLOUDY    64  46  52 SW13      29.78R
6HR MIN TEMP:  62; 6HR MAX TEMP:  68; 6HR PCP: TRACE;

APPLETON       PTSUNNY   63  45  51 W16G23    29.76S
CLINTONVILLE   MOSUNNY   63  45  51 W12G18    29.76S
OSHKOSH        PTSUNNY   61  47  59 W8G17     29.79R
6HR MIN TEMP:  60; 6HR MAX TEMP:  68; 6HR PCP: TRACE;

$$

WIZ032>034-041-042-053>061-300100-
SOUTHWEST WISCONSIN

CITY           SKY/WX    TMP DP  RH WIND       PRES   REMARKS
LA CROSSE      PTSUNNY   64  51  62 W16       29.82R
6HR MIN TEMP:  58; 6HR MAX TEMP:  68; 6HR PCP:  0.07;

SPARTA         MOSUNNY   60  53  79 W3        29.83S
6HR MIN TEMP:  55; 6HR MAX TEMP:  65; 6HR PCP:  0.03;

VIROQUA        PTSUNNY   62  48  60 MISG      29.84R
6HR MIN TEMP:  58; 6HR MAX TEMP:  67;

BOSCOBEL       SUNNY     68  47  46 NW12G18   29.84S
6HR MIN TEMP:  65; 6HR MAX TEMP:  72; 6HR PCP: TRACE;

PRAIRIE DU CHI PTSUNNY   67  43  41 W15G25    29.84R
6HR MIN TEMP:  66; 6HR MAX TEMP:  72;

PLATTEVILLE    PTSUNNY   69  47  45 W10       29.85S
6HR MIN TEMP:  66; 6HR MAX TEMP:  70;

$$

WIZ056-057-062-063-064-067-068-300100-
SOUTH CENTRAL WISCONSIN

CITY           SKY/WX    TMP DP  RH WIND       PRES   REMARKS
REEDSBURG      CLOUDY    57  52  84 SW5       29.84S
6HR MIN TEMP:  52; 6HR MAX TEMP:  67; 6HR PCP:  0.05;

BARABOO/DELLS  CLOUDY    55  48  76 W6        29.84R
6HR MIN TEMP:  53; 6HR MAX TEMP:  66; 6HR PCP:  0.10;

LONE ROCK      CLOUDY    66  45  46 NW15G23   29.84R
6HR MIN TEMP:  66; 6HR MAX TEMP:  70; 6HR PCP: TRACE;

MINERAL POINT  PTSUNNY   66  46  48 NW8G16    29.86R
MADISON        TSTM      61  48  62 W12G23    29.85R
6HR MIN TEMP:  65; 6HR MAX TEMP:  68;

MIDDLETON      CLOUDY    65  46  49 W18G33    29.85R
6HR MIN TEMP:  65; 6HR MAX TEMP:  70;

WATERTOWN      CLOUDY    65  47  51 NW13      29.82R
6HR MIN TEMP:  65; 6HR MAX TEMP:  68;

MONROE         MOSUNNY   68  43  40 W12       29.84S
JANESVILLE     PTSUNNY   70  43  37 W14G20    29.83R
$$

WIZ051-052-058>065-066-070>072-300100-
SOUTHEAST WISCONSIN

CITY           SKY/WX    TMP DP  RH WIND       PRES   REMARKS
MILWAUKEE      PTSUNNY   70  43  37 W14       29.82R
6HR MIN TEMP:  70; 6HR MAX TEMP:  74;

WAUKESHA       PTSUNNY   61  46  59 SW17G28   29.84R
MILWAUKEE/TIMM PTSUNNY   66  39  37 W13G22    29.82R
RACINE         PTSUNNY   69  43  38 W9G20     29.84R
6HR MIN TEMP:  69; 6HR MAX TEMP:  73;

KENOSHA        MOSUNNY   68  45  43 W13       29.83R
6HR MIN TEMP:  67; 6HR MAX TEMP:  73;

FOND DU LAC    CLOUDY    62  45  53 W12       29.81R
6HR MIN TEMP:  59; 6HR MAX TEMP:  69; 6HR PCP: TRACE;

SHEBOYGAN      LGT RAIN  61  51  70 W12G22    29.79R
6HR MIN TEMP:  61; 6HR MAX TEMP:  69; 6HR PCP: TRACE;

WEST BEND      RAIN      63  46  55 W16G29    29.82R
JUNEAU         PTSUNNY   62  47  58 W8        29.84R
6HR MIN TEMP:  60; 6HR MAX TEMP:  67;

$$

LSZ147-162-300100-
LAKE SUPERIOR

STATION/POSITION TIME  TEMP    WIND        PRES    WAVE
                       AIR SEA DIR/SP/G            HT/PER
                 (UTC) (F)     (DEG/KT/KT) (MB)    (FT/S)
W MID LAKE BUOY  2350   43 38  250/ 14/ 16 1004.7R   2/ 4
DEVILS ISLAND    0000   48     230/ 19/ 20 1006.1R
SAXON HARBOR     2340   58     260/ 10/ 17 1006.4R
$$

LMZ867-665-643>646-300100-
LAKE MICHIGAN

STATION/POSITION TIME  TEMP    WIND        PRES    WAVE
                       AIR SEA DIR/SP/G            HT/PER
                 (UTC) (F)     (DEG/KT/KT) (MB)    (FT/S)
CHAMBERS ISLAND  2340   62     210/  5/ 12 1005.8S
N MID LAKE BUOY  2350   46 41  200/  6/  8 1007.0S   2/


USA.gov is the U.S. government's official web portal to all federal, state and local government web resources and services.